{"data":{"norad_id":63228,"epoch":"2026-05-25T04:08:36.858912Z","epoch_age_seconds":70392,"freshness":"FRESH","line1":"1 63228U 25052U   26145.17264883  .00005349  00000+0  22840-3 0  9991","line2":"2 63228  97.3949  38.2733 0003806 212.3425 147.7579 15.23298571 66360","mean_motion":15.23298571,"eccentricity":0.0003806,"inclination_deg":97.3949,"raan_deg":38.2733,"arg_perigee_deg":212.3425,"mean_anomaly_deg":147.7579,"bstar":0.0002284,"rev_number":6636,"period_min":94.531697686468,"perigee_km":493.28299435976,"apogee_km":498.5155107552,"semimajor_km":6874.0362525575,"source":"CELESTRAK","updated_at":"2026-05-25T13:38:03.579893Z"}}